• In Lithuania
  • List of Countries
  • For 7 days
  • Water Temperature
  • Satellite Maps
  • Weather Map
  • Weather Widgets
  • user-avatar
    Login

    Hourly Weather Lublin

    Today, 18 June, Monday

    Time Temperature Precipitation Wind Pressure Humidity
    00:00 +18°C° 0 mm 2 mps 746 mmHg 69%
    01:00 +18°C° 0 mm 2 mps 746 mmHg 70%
    02:00 +19°C° 0 mm 2 mps 745 mmHg 76%
    03:00 +19°C° 0.1 mm 1 mps 745 mmHg 79%
    04:00 +19°C° 0.1 mm 1 mps 745 mmHg 82%
    05:00 +19°C° 0.1 mm 1 mps 745 mmHg 85%
    06:00 +20°C° 0 mm 1 mps 745 mmHg 83%
    07:00 +21°C° 0 mm 1 mps 745 mmHg 81%
    08:00 +20°C° 0 mm 2 mps 746 mmHg 79%
    09:00 +21°C° 0.1 mm 2 mps 746 mmHg 74%
    10:00 +23°C° 0.1 mm 2 mps 746 mmHg 69%
    11:00 +25°C° 0.1 mm 2 mps 746 mmHg 65%
    12:00 +25°C° 0.7 mm 2 mps 746 mmHg 63%
    13:00 +26°C° 0.7 mm 2 mps 746 mmHg 60%
    14:00 +27°C° 0.7 mm 2 mps 746 mmHg 58%
    15:00 +27°C° 0.8 mm 2 mps 746 mmHg 60%
    16:00 +27°C° 0.8 mm 2 mps 746 mmHg 62%
    17:00 +27°C° 0.8 mm 2 mps 745 mmHg 64%
    18:00 +26°C° 0.3 mm 1 mps 745 mmHg 67%
    19:00 +25°C° 0.3 mm 1 mps 745 mmHg 71%
    20:00 +24°C° 0.3 mm 1 mps 746 mmHg 75%
    21:00 +23°C° 0.2 mm 1 mps 746 mmHg 77%
    22:00 +22°C° 0.2 mm 1 mps 746 mmHg 79%
    23:00 +21°C° 0.2 mm 1 mps 746 mmHg 82%

    Tomorrow, 19 June, Tuesday

    Time Temperature Precipitation Wind Pressure Humidity
    00:00 +20°C° 0.3 mm 1 mps 746 mmHg 84%
    01:00 +20°C° 0.3 mm 1 mps 747 mmHg 86%
    02:00 +19°C° 0.3 mm 1 mps 747 mmHg 88%
    03:00 +19°C° 0 mm 1 mps 747 mmHg 88%
    04:00 +19°C° 0 mm 1 mps 747 mmHg 89%
    05:00 +18°C° 0 mm 1 mps 747 mmHg 90%
    06:00 +20°C° 0 mm 1 mps 747 mmHg 86%
    07:00 +20°C° 0 mm 2 mps 748 mmHg 82%
    08:00 +23°C° 0 mm 2 mps 748 mmHg 78%
    09:00 +24°C° 0.3 mm 3 mps 748 mmHg 74%
    10:00 +25°C° 0.3 mm 3 mps 748 mmHg 70%
    11:00 +26°C° 0.3 mm 4 mps 748 mmHg 65%
    12:00 +27°C° 0.2 mm 4 mps 748 mmHg 62%
    13:00 +27°C° 0.2 mm 4 mps 748 mmHg 58%
    14:00 +28°C° 0.2 mm 4 mps 748 mmHg 55%
    15:00 +28°C° 0 mm 4 mps 748 mmHg 54%
    16:00 +28°C° 0 mm 4 mps 748 mmHg 53%
    17:00 +28°C° 0 mm 4 mps 748 mmHg 53%
    18:00 +26°C° 0 mm 4 mps 748 mmHg 59%
    19:00 +25°C° 0 mm 3 mps 748 mmHg 65%
    20:00 +22°C° 0 mm 3 mps 748 mmHg 70%
    21:00 +21°C° 0 mm 2 mps 749 mmHg 74%
    22:00 +20°C° 0 mm 2 mps 749 mmHg 78%
    23:00 +18°C° 0 mm 2 mps 749 mmHg 81%

    Day after tomorrow, 20 June, Wednesday

    Time Temperature Precipitation Wind Pressure Humidity
    00:00 +18°C° 0 mm 2 mps 749 mmHg 83%
    01:00 +17°C° 0 mm 2 mps 749 mmHg 86%
    02:00 +17°C° 0 mm 2 mps 750 mmHg 88%
    03:00 +18°C° 0 mm 1 mps 750 mmHg 89%
    04:00 +18°C° 0 mm 1 mps 750 mmHg 90%
    05:00 +16°C° 0 mm 1 mps 750 mmHg 91%
    06:00 +19°C° 0 mm 1 mps 750 mmHg 85%
    07:00 +21°C° 0 mm 1 mps 750 mmHg 78%
    08:00 +23°C° 0 mm 1 mps 751 mmHg 72%
    09:00 +24°C° 0.1 mm 1 mps 751 mmHg 68%
    10:00 +25°C° 0.1 mm 2 mps 751 mmHg 63%
    11:00 +26°C° 0.1 mm 2 mps 751 mmHg 58%
    12:00 +26°C° 0.1 mm 2 mps 750 mmHg 57%
    13:00 +27°C° 0.1 mm 2 mps 750 mmHg 55%
    14:00 +27°C° 0.1 mm 2 mps 750 mmHg 54%
    15:00 +27°C° 0 mm 2 mps 749 mmHg 55%
    16:00 +27°C° 0 mm 2 mps 749 mmHg 55%
    17:00 +27°C° 0 mm 2 mps 749 mmHg 56%
    18:00 +26°C° 0 mm 1 mps 749 mmHg 60%
    19:00 +25°C° 0 mm 1 mps 749 mmHg 65%
    20:00 +24°C° 0 mm 1 mps 749 mmHg 69%
    21:00 +23°C° 0 mm 1 mps 749 mmHg 72%
    22:00 +22°C° 0 mm 1 mps 749 mmHg 75%
    23:00 +19°C° 0 mm 0 mps 749 mmHg 78%

    21 June, Thursday

    Time Temperature Precipitation Wind Pressure Humidity
    00:00 +18°C° 0 mm 0 mps 749 mmHg 80%
    01:00 +18°C° 0 mm 0 mps 748 mmHg 82%
    02:00 +17°C° 0 mm 0 mps 748 mmHg 84%
    03:00 +17°C° 0 mm 0 mps 748 mmHg 84%
    04:00 +19°C° 0 mm 1 mps 748 mmHg 85%
    05:00 +19°C° 0 mm 1 mps 748 mmHg 85%
    06:00 +21°C° 0 mm 1 mps 747 mmHg 79%
    07:00 +23°C° 0 mm 1 mps 747 mmHg 74%
    08:00 +25°C° 0 mm 1 mps 747 mmHg 68%
    09:00 +26°C° 0 mm 2 mps 746 mmHg 64%
    10:00 +27°C° 0 mm 2 mps 746 mmHg 59%
    11:00 +28°C° 0 mm 3 mps 745 mmHg 55%
    12:00 +29°C° 0 mm 3 mps 745 mmHg 54%
    13:00 +29°C° 0 mm 3 mps 744 mmHg 54%
    14:00 +29°C° 0 mm 3 mps 743 mmHg 54%
    15:00 +29°C° 0.6 mm 3 mps 743 mmHg 57%
    16:00 +29°C° 0.6 mm 3 mps 742 mmHg 60%
    17:00 +29°C° 0.6 mm 3 mps 742 mmHg 64%
    18:00 +28°C° 0.7 mm 3 mps 741 mmHg 69%
    19:00 +26°C° 0.7 mm 3 mps 741 mmHg 75%
    20:00 +25°C° 0.7 mm 3 mps 740 mmHg 81%
    21:00 +25°C° 0 mm 3 mps 740 mmHg 82%
    22:00 +23°C° 0 mm 4 mps 739 mmHg 83%
    23:00 +22°C° 0 mm 4 mps 739 mmHg 85%

    22 June, Friday

    Time Temperature Precipitation Wind Pressure Humidity
    00:00 +22°C° 0.3 mm 4 mps 738 mmHg 85%
    01:00 +22°C° 0.3 mm 4 mps 738 mmHg 85%
    02:00 +21°C° 0.3 mm 4 mps 738 mmHg 85%
    03:00 +20°C° 0.2 mm 5 mps 738 mmHg 87%
    04:00 +19°C° 0.2 mm 6 mps 739 mmHg 89%
    05:00 +17°C° 0.2 mm 7 mps 739 mmHg 90%
    06:00 +16°C° 0.3 mm 7 mps 740 mmHg 88%
    07:00 +14°C° 0.3 mm 6 mps 741 mmHg 85%
    08:00 +13°C° 0.3 mm 6 mps 742 mmHg 83%
    09:00 +14°C° 0 mm 6 mps 742 mmHg 73%
    10:00 +15°C° 0 mm 6 mps 743 mmHg 64%
    11:00 +16°C° 0 mm 6 mps 743 mmHg 55%
    12:00 +16°C° 0 mm 6 mps 743 mmHg 55%
    13:00 +16°C° 0 mm 6 mps 743 mmHg 55%
    14:00 +16°C° 0 mm 6 mps 743 mmHg 54%
    15:00 +16°C° 0 mm 5 mps 743 mmHg 55%
    16:00 +16°C° 0 mm 5 mps 743 mmHg 55%
    17:00 +15°C° 0 mm 5 mps 743 mmHg 56%
    18:00 +15°C° 0 mm 4 mps 743 mmHg 59%
    19:00 +14°C° 0 mm 3 mps 743 mmHg 62%
    20:00 +14°C° 0 mm 3 mps 743 mmHg 65%
    21:00 +13°C° 0 mm 3 mps 743 mmHg 67%
    22:00 +11°C° 0 mm 3 mps 743 mmHg 69%
    23:00 +10°C° 0 mm 3 mps 744 mmHg 71%

    23 June, Saturday

    Time Temperature Precipitation Wind Pressure Humidity
    00:00 +10°C° 0 mm 3 mps 744 mmHg 73%
    01:00 +9°C° 0 mm 3 mps 743 mmHg 74%
    02:00 +9°C° 0 mm 3 mps 743 mmHg 75%
    03:00 +9°C° 0 mm 3 mps 743 mmHg 77%
    04:00 +9°C° 0 mm 3 mps 744 mmHg 78%
    05:00 +8°C° 0 mm 3 mps 744 mmHg 80%
    06:00 +10°C° 0 mm 4 mps 744 mmHg 77%
    07:00 +12°C° 0 mm 5 mps 744 mmHg 75%
    08:00 +13°C° 0 mm 5 mps 744 mmHg 72%
    09:00 +14°C° 0.2 mm 6 mps 744 mmHg 71%
    10:00 +14°C° 0.2 mm 6 mps 744 mmHg 71%
    11:00 +15°C° 0.2 mm 6 mps 744 mmHg 70%
    12:00 +16°C° 0.3 mm 6 mps 744 mmHg 66%
    13:00 +16°C° 0.3 mm 7 mps 744 mmHg 61%
    14:00 +17°C° 0.3 mm 7 mps 744 mmHg 56%
    15:00 +17°C° 0.1 mm 7 mps 744 mmHg 56%
    16:00 +17°C° 0.1 mm 7 mps 744 mmHg 55%
    17:00 +16°C° 0.1 mm 7 mps 744 mmHg 55%
    18:00 +15°C° 0 mm 5 mps 744 mmHg 59%
    19:00 +14°C° 0 mm 4 mps 744 mmHg 64%
    20:00 +13°C° 0 mm 3 mps 745 mmHg 68%
    21:00 +12°C° 0 mm 3 mps 745 mmHg 71%
    22:00 +11°C° 0 mm 3 mps 745 mmHg 75%
    23:00 +10°C° 0 mm 3 mps 746 mmHg 79%
    Show more